Regional Weather Roundup
Issued by NWS Northern Indiana

Home | Current Version | Previous Version | Graphics & Text | Print | Product List | Glossary On
Versions: 1 2 3 4 5 6 7 8 9 10 11 12 13 14 15 16 17 18 19 20 21 22 23 24 25 26 27 28 29 30 31 32 33 34 35 36 37 38 39 40 41 42 43 44 45 46 47 48 49 50
000
ASUS43 KIWX 260510
RWRIWX

KIWX WEATHER ROUNDUP
NATIONAL WEATHER SERVICE NORTHERN INDIANA
100 AM EDT FRI MAY 26 2017

NOTE: "FAIR" INDICATES FEW OR NO CLOUDS BELOW 12,000 FEET WITH NO
SIGNIFICANT WEATHER AND/OR OBSTRUCTIONS TO VISIBILITY.

* THESE STATIONS ARE NOT UNDER NWS QUALITY CONTROL. THEY ALSO MAY NOT
  REPORT WEATHER SUCH AS PRECIPITATION OR FOG.

INZ001>027-260600-
NORTHERN INDIANA

CITY           SKY/WX    TMP DP  RH WIND       PRES   REMARKS
GARY*          CLEAR     52  51  95 CALM      29.80R FOG
VALPARAISO     CLEAR     52  50  93 NW7       29.79R
MICHIGAN CITY* CLEAR     46  46 100 CALM      29.79R
LAPORTE*       CLEAR     50  49  95 NW3       29.78R
KNOX*          CLEAR     52  45  76 NW7       29.78R
SOUTH BEND     CLOUDY    50  49  96 NW8       29.76S
GOSHEN         MOCLDY    52  48  86 W12       29.74R
MONTICELLO*    CLEAR     54  52  91 W3        29.79R
LOGANSPORT*    CLEAR     52  50  93 W5        29.80R
ROCHESTER*     CLEAR     55  52  88 W6        29.78R
WARSAW*        CLEAR     52  50  93 W8        29.75R
ANGOLA*        CLEAR     54  45  71 W6        29.71R
FORT WAYNE     PTCLDY    56  52  86 W12       29.74R
HUNTINGTON*    CLEAR     54  53  96 W8        29.75R
PERU/GRISSOM   CLEAR     55  55 100 W10       29.77R
MARION*        CLEAR     55  54  94 W9        29.78R

$$
INZ028>050-260600-
CENTRAL INDIANA

CITY           SKY/WX    TMP DP  RH WIND       PRES   REMARKS
LAFAYETTE      CLEAR     54  54 100 CALM      29.80R
KOKOMO*        PTCLDY    56  53  90 W9        29.79R
MUNCIE*        CLEAR     58  54  86 W7        29.77R
INDIANAPOLIS   CLEAR     54  51  90 SW7       29.81R

$$
MIZ043>046-050>051-056>058-064>065-071>073-077>080-260600-
SOUTHWEST LOWER MICHIGAN

CITY           SKY/WX    TMP DP  RH WIND       PRES   REMARKS
BATTLE CREEK   CLOUDY    56  54  93 W7        29.71R
BENTON HARBOR  PTCLDY    50  48  93 W5        29.75R
COLDWATER*     CLOUDY    56  55  94 W5        29.71R
HILLSDALE*     MOCLDY    55  54  94 W7        29.69S
HOLLAND        CLEAR     51  49  92 NW5       29.73R
GRAND RAPIDS   PTCLDY    59  54  83 N9        29.70R
KALAMAZOO      CLEAR     53  49  86 W5        29.72R
STURGIS*       PTCLDY    52  51  97 W6        29.72R
THREE RIVERS*  FAIR      51  50  94 W6        29.73R

$$
OHZ001>008-015>018-024>025-260600-
NORTHWEST OHIO

CITY           SKY/WX    TMP DP  RH WIND       PRES   REMARKS
WAUSEON*       DRIZZLE   59  57  94 NW10      29.68S
DEFIANCE       MOCLDY    57  53  86 W7        29.70R
FINDLAY        CLOUDY    61  55  81 W12       29.68R
TOLEDO EXPRESS CLOUDY    59  57  93 W8        29.67R
TOLEDO METCALF CLOUDY    61  57  87 W9        29.67R
LIMA           MOCLDY    58  56  93 W14       29.71R

$$
AND FOR LAKE MICHIGAN COASTAL AND OPEN LAKE BUOY OBSERVATIONS

STATION/POSITION TEMP    WIND        PRES    VSBY  WAVE
                 AIR SEA DIR/SP/G                  HT/PER
                 (F)     (DEG/KT/KT) (MB)    (MI)  (FT/S)
CALUMET HARBOR    56     300/  3/  5 1008.3R
MICHIGAN CITY     52     240/ 10/ 11   N/A
BURNS HARBOR      54     280/  5/  6 1009.1R
SOUTH LAKE BUOY   48 45  330/ 12/ 14 1007.3          2/ 5
4 MI NW BRIDGMAN  51 55  280/ 10/ 10 1008.4          3/ 5
MICHIGAN CITY     51 51  260/  6/  8   N/A           2/ 5

$$
&&



USA.gov is the U.S. government's official web portal to all federal, state and local government web resources and services.